Wind_Speed
25 22 21 20 20 23 25 25 24 25 27 25 25 25 24 23 23 23 24 24 25 25 25 24 26 28 29 30 30 30 30 29 29 29 30 31 31 29 29 30 27 25 25 24 22 22 22 23 24 24 25 26 26 24 23 23 22 21 20 19 18 18 17 17 18 18 18 19 19 18 19 19 20 21 22 22 22 21 20 19 18 18 19 20 21
24 22 22 20 21 24 25 26 29 30 31 29 28 28 27 27 26 27 27 27 27 27 27 28 29 30 31 31 31 32 31 30 31 31 31 32 32 32 31 30 28 24 23 23 23 22 21 21 23 24 25 25 26 26 25 24 23 22 22 21 20 19 18 18 18 19 19 19 20 20 19 19 19 19 20 22 22 22 21 20 19 19 19 20 21
22 23 24 22 21 25 28 32 34 34 33 32 31 31 30 30 30 30 30 29 30 29 30 31 32 33 33 33 33 33 32 31 31 32 32 33 34 33 32 31 29 26 22 21 22 21 19 19 21 23 24 25 26 26 25 25 25 24 23 22 22 21 20 20 19 19 19 20 20 20 20 20 20 19 19 20 21 22 22 21 21 20 19 20 20
23 26 26 26 27 30 33 35 36 35 35 34 34 34 33 33 32 32 32 32 32 33 33 34 35 35 35 35 35 34 33 33 32 32 33 34 34 34 33 31 30 27 24 21 20 21 19 17 19 22 23 23 24 24 24 25 25 24 23 23 23 22 21 21 21 21 21 21 21 20 21 21 20 20 19 18 19 21 22 22 22 21 20 20 20
25 27 29 30 31 33 35 36 37 37 37 37 37 36 35 35 35 34 35 35 35 36 36 37 37 38 37 37 37 36 35 35 34 34 34 34 34 35 34 32 30 28 25 23 21 22 22 19 17 19 20 21 21 21 22 23 24 24 24 24 24 23 23 23 22 22 22 22 22 21 21 21 21 21 20 18 18 19 20 22 23 23 22 21 21
27 29 31 32 33 35 37 38 39 38 38 38 38 38 38 37 37 37 37 37 37 38 39 39 40 40 40 39 39 38 37 36 36 36 35 35 34 34 34 33 32 30 26 24 23 23 25 25 23 22 22 22 20 21 22 22 24 24 25 24 24 24 24 23 23 23 23 23 23 22 22 21 21 21 20 19 17 17 18 20 22 23 23 22 21
29 30 32 34 36 38 39 40 40 40 40 40 40 40 40 39 39 40 40 40 40 41 41 41 41 42 42 42 41 40 39 38 37 37 36 35 34 34 34 34 33 31 28 25 23 24 25 27 28 27 26 25 24 23 23 23 24 24 25 24 25 25 25 24 24 24 24 24 24 23 23 22 21 21 21 20 18 17 17 18 20 21 23 23 23
29 30 34 37 38 39 39 40 41 41 41 42 42 42 42 42 42 43 43 44 43 43 43 43 43 43 44 44 43 43 42 40 38 37 36 36 35 34 34 34 33 32 30 27 24 24 25 27 28 28 27 27 26 23 22 23 23 22 23 24 25 25 25 25 24 24 25 25 24 24 24 23 22 21 21 20 18 17 17 17 18 20 21 23 23
30 32 36 38 40 41 41 42 42 43 43 44 45 45 45 46 46 46 46 45 45 44 44 44 44 45 45 45 44 43 42 40 39 37 36 36 35 35 34 34 34 33 31 29 26 24 24 25 27 29 30 29 26 22 21 22 23 23 24 25 26 26 26 26 25 25 25 25 25 24 24 24 23 21 21 20 19 18 17 17 17 18 19 21 23
31 35 39 41 42 43 43 44 44 45 45 46 47 47 47 47 47 47 47 46 46 45 46 46 46 46 46 45 44 43 42 40 39 37 36 36 35 35 35 34 34 34 32 28 26 25 24 23 24 27 29 30 29 26 22 21 23 25 25 26 27 27 27 26 26 25 25 25 25 25 24 24 24 22 21 20 19 18 17 17 17 17 17 19 21
35 39 41 43 43 43 44 44 45 45 46 47 48 48 47 48 48 48 47 47 47 47 47 47 47 46 46 45 44 43 41 40 39 38 37 36 36 36 36 34 33 33 31 27 25 24 24 23 23 24 25 27 29 30 27 24 23 23 23 26 27 27 27 27 27 26 26 26 26 25 25 24 24 24 22 20 20 19 17 17 16 16 16 17 18
40 41 41 42 42 43 43 43 44 45 46 47 47 48 48 49 49 49 49 48 48 48 47 47 47 46 45 44 43 42 42 41 40 39 38 37 37 37 37 35 33 32 30 28 26 24 23 24 25 26 25 25 26 29 31 30 28 26 25 26 27 28 28 27 28 27 26 26 26 26 25 25 24 24 23 22 20 19 18 17 17 16 16 16 17
40 39 39 40 40 41 41 41 42 43 44 45 45 46 47 48 48 49 49 49 48 48 47 47 46 46 45 44 43 42 42 42 41 40 39 39 39 39 39 38 35 34 32 29 27 26 26 27 26 27 27 26 25 26 30 34 34 32 30 28 27 29 29 28 28 27 27 27 27 27 27 26 25 24 24 24 22 20 19 18 17 17 17 16 16
37 37 37 38 39 39 39 40 40 41 41 42 43 43 44 45 45 46 47 47 48 47 47 46 45 45 45 44 43 43 42 42 42 41 41 40 40 40 40 39 37 36 35 32 29 28 29 29 27 27 27 26 24 24 27 32 35 34 32 30 29 29 30 28 27 27 28 28 28 28 28 27 26 25 25 25 24 22 20 19 18 18 17 17 16
36 37 38 38 38 38 39 39 39 39 39 40 41 41 41 41 42 43 44 45 45 46 45 44 44 44 44 44 43 42 42 42 42 42 42 42 42 41 41 40 38 37 36 35 32 31 31 30 30 29 27 24 25 28 30 31 33 34 33 32 31 31 31 28 27 28 29 29 28 29 29 29 28 27 25 26 25 24 21 20 19 19 18 18 17
39 40 40 40 39 39 40 39 39 39 39 39 39 38 38 39 40 41 42 43 44 44 44 44 43 43 42 42 42 42 42 42 42 42 43 43 43 42 41 40 39 37 37 36 35 33 33 32 32 31 28 24 27 31 32 31 32 34 34 34 35 35 33 31 30 29 28 29 30 30 30 30 29 28 27 27 26 25 23 21 20 20 19 18 18
43 43 43 42 41 42 41 41 42 42 42 41 39 38 38 40 41 42 42 43 44 44 44 44 43 43 42 41 41 41 41 42 43 43 42 43 43 42 41 41 40 38 36 36 36 36 35 34 33 32 31 29 30 32 32 31 31 33 34 35 37 38 36 34 33 31 29 31 32 31 31 30 30 30 29 29 28 27 25 23 21 21 20 20 18
46 45 45 44 43 43 43 44 45 45 45 43 41 41 41 42 42 42 43 43 44 44 45 45 44 43 42 41 40 40 41 40 41 42 42 41 41 41 40 39 38 37 36 36 37 37 37 35 33 33 33 33 34 33 32 32 31 31 33 35 38 39 38 37 36 34 32 32 31 31 32 32 31 31 32 32 30 28 26 24 23 22 21 21 20
47 46 45 44 44 44 44 45 45 45 45 44 44 44 44 44 43 43 44 45 46 46 45 45 45 44 43 42 41 40 40 40 39 40 40 39 38 38 38 38 37 36 36 36 37 38 38 37 35 35 36 37 37 36 34 33 32 32 33 35 39 40 39 38 38 36 34 34 31 30 33 34 33 33 35 34 32 30 28 25 23 22 22 21 21
47 45 44 44 44 45 45 46 46 46 46 46 46 46 46 46 46 46 47 47 48 47 47 46 45 45 43 42 42 41 40 39 38 37 38 39 37 36 36 36 36 36 35 35 36 38 39 40 39 39 39 40 40 38 36 35 35 34 34 36 39 41 41 39 38 37 35 35 34 31 32 33 35 37 38 36 34 31 29 26 24 24 23 22 22
45 44 45 45 45 46 46 47 47 48 48 48 48 48 47 47 47 48 49 50 50 49 48 48 46 45 44 43 42 41 41 40 39 37 37 37 38 37 36 35 36 36 36 36 36 37 38 40 41 41 41 43 42 41 39 38 38 38 39 40 40 42 43 42 39 37 36 37 37 36 33 32 36 40 40 38 36 33 30 26 25 27 27 25 22
44 45 45 46 47 47 48 49 49 49 50 50 49 48 47 47 49 52 54 54 52 50 48 48 48 46 45 44 43 42 42 41 40 39 38 37 37 38 37 36 36 36 35 36 37 37 38 39 41 42 42 44 44 43 42 40 40 41 41 42 42 42 44 45 42 39 38 38 39 40 37 33 36 39 41 41 38 35 31 27 26 29 31 28 25
45 46 46 47 48 48 49 50 50 51 51 50 48 47 47 50 54 56 55 53 50 49 48 48 48 47 46 46 45 44 43 43 42 41 40 39 38 38 38 37 37 37 36 36 37 38 39 40 40 41 42 43 43 44 44 42 41 43 42 42 44 44 45 46 46 44 42 41 41 42 40 37 36 37 40 40 37 32 30 28 27 27 28 27 27
46 46 47 48 49 49 50 50 51 52 51 49 48 48 51 54 56 55 51 48 48 48 48 49 49 49 48 47 46 45 44 43 43 42 42 41 40 39 39 38 38 39 38 37 38 40 41 41 41 41 42 42 43 44 45 45 43 44 45 46 47 47 47 47 48 47 45 44 44 43 43 42 38 36 38 37 34 32 32 32 31 30 29 28 29
47 48 49 50 50 51 52 52 53 52 51 50 50 52 55 56 57 54 48 47 48 49 50 51 51 51 50 49 48 47 45 44 43 42 42 42 41 41 40 40 39 41 41 40 41 41 42 42 41 42 42 42 42 43 44 44 43 43 46 49 50 50 49 48 48 49 48 46 46 46 46 46 43 38 37 37 36 36 37 36 35 33 31 30 29
50 51 51 52 53 54 54 53 53 53 53 53 54 56 58 59 59 55 50 49 50 52 53 53 53 53 52 51 50 49 47 45 44 43 42 42 42 41 41 41 40 41 42 42 43 44 44 42 41 42 43 42 42 42 42 41 41 43 45 47 50 51 51 50 50 51 51 49 48 48 48 48 47 43 39 39 39 38 39 39 37 35 33 32 30
52 53 53 54 54 54 53 53 53 54 54 55 57 59 61 61 60 57 53 52 54 55 56 56 56 55 54 53 52 51 50 48 46 45 44 43 42 41 40 40 40 41 43 43 44 45 45 43 42 42 42 42 42 41 38 36 38 42 44 47 49 50 52 52 52 52 53 53 51 50 49 48 49 48 44 40 39 38 38 40 40 40 40 38 35
53 53 53 53 53 53 53 53 54 54 55 57 59 61 62 61 60 58 56 56 58 59 60 60 59 58 56 54 53 52 52 50 49 47 46 45 44 43 42 40 39 40 43 44 45 46 45 43 43 43 41 41 43 42 37 34 34 37 42 48 50 50 51 52 54 55 55 55 55 54 52 49 48 50 49 45 42 39 39 40 43 43 44 43 39
53 52 52 53 53 54 54 54 54 55 57 59 60 61 60 60 60 59 59 60 61 62 63 63 62 61 58 55 54 53 53 52 51 50 49 48 47 46 44 43 41 40 41 43 45 48 48 45 44 44 43 42 42 42 42 39 36 33 36 43 49 51 53 53 55 56 57 57 57 57 55 52 49 49 51 50 48 46 42 41 43 45 45 44 42
54 55 55 56 56 55 55 55 56 57 59 60 60 59 59 60 61 62 62 64 65 65 66 65 65 63 59 57 55 55 54 54 53 52 52 51 51 50 48 47 45 43 42 42 44 49 50 48 47 46 45 44 43 43 44 43 42 39 37 38 44 49 52 54 55 57 58 59 58 58 58 56 52 49 50 50 51 51 49 45 44 46 46 45 42
57 58 59 58 57 56 56 57 58 60 60 59 59 60 61 64 65 66 66 67 67 67 67 67 66 64 61 58 56 56 56 55 55 54 54 54 53 53 52 51 50 47 45 43 43 48 50 49 49 50 48 46 45 44 44 44 45 47 45 42 45 47 49 52 55 56 58 60 61 60 59 58 56 52 50 49 50 51 52 50 47 46 45 43 41
60 59 58 58 57 57 58 59 60 60 60 60 61 64 66 68 68 68 69 69 68 69 69 68 67 65 62 59 57 57 56 56 56 56 56 56 55 55 54 54 53 51 49 46 44 47 51 50 50 52 53 50 48 47 46 46 46 49 51 51 49 47 48 50 54 56 57 59 61 62 61 60 59 56 53 51 50 50 51 52 50 47 46 45 44
58 58 57 57 57 59 60 61 62 62 63 64 66 68 69 70 70 70 69 69 69 70 69 68 67 65 62 60 58 58 57 57 57 57 57 58 57 57 56 55 55 54 51 50 48 48 52 53 52 53 55 54 52 50 49 48 48 49 52 55 53 49 48 49 52 55 57 57 60 62 62 61 60 59 57 54 53 51 51 53 51 49 48 48 48
57 57 58 59 60 62 63 64 65 65 66 67 68 70 71 71 71 71 70 70 70 70 69 68 67 64 62 61 60 59 59 59 59 59 59 60 60 59 59 58 58 57 55 53 52 51 52 56 56 55 56 56 55 54 53 51 51 50 51 54 55 51 49 50 50 54 57 58 59 61 63 63 61 60 58 56 54 52 52 53 53 51 50 50 49
60 61 63 64 65 66 66 65 66 66 68 69 71 72 72 72 72 72 71 71 70 70 69 68 66 63 62 61 61 61 61 61 61 61 61 62 62 62 62 62 61 61 60 57 55 54 54 56 58 57 57 58 57 57 57 55 53 52 52 54 56 54 52 51 50 52 56 57 58 59 61 62 62 61 59 57 55 54 53 53 53 51 50 50 50
65 66 66 66 66 65 64 65 67 69 71 72 73 73 73 72 72 71 71 70 70 69 68 66 64 62 62 62 62 62 63 63 63 63 63 64 64 64 64 64 64 63 63 62 59 57 55 56 58 59 58 58 59 59 59 59 57 55 53 54 57 57 56 54 52 53 55 56 58 58 59 60 61 60 60 58 57 56 56 54 53 51 49 49 48
67 66 65 64 63 64 65 68 71 73 73 74 73 73 71 71 71 70 70 69 69 67 66 64 63 62 62 62 63 63 64 64 64 64 65 65 65 65 64 65 65 64 64 64 62 61 59 57 58 60 60 59 59 60 61 61 60 58 56 56 58 59 58 56 53 54 55 55 57 58 57 58 59 59 60 59 58 57 57 56 54 51 49 48 47
65 65 65 65 66 68 70 73 74 74 73 73 72 71 70 70 70 69 69 68 68 66 64 63 62 62 63 63 64 65 65 65 66 65 66 66 66 66 65 65 65 65 64 65 64 63 62 61 60 61 62 61 60 61 63 63 61 61 59 58 59 60 60 57 55 56 56 55 56 58 56 56 58 59 59 60 60 60 59 57 55 51 49 47 46
66 66 67 68 70 71 73 74 73 73 72 71 70 70 70 69 68 67 67 67 67 66 64 63 63 64 65 65 66 67 67 67 67 67 66 67 67 67 66 66 66 66 65 65 65 64 63 63 63 64 65 65 63 62 64 64 63 62 62 59 60 61 61 60 58 57 57 56 58 59 58 57 57 58 59 59 60 60 59 57 54 52 50 48 48
66 67 68 69 70 71 73 73 73 72 71 70 70 70 70 68 67 67 67 67 67 66 65 65 65 66 67 68 69 70 70 70 69 68 67 66 67 67 67 67 67 67 67 67 67 67 66 65 65 66 66 67 67 65 65 65 64 64 64 61 60 62 63 62 60 59 58 60 61 60 59 59 58 57 58 59 58 58 57 56 54 53 52 52 51
66 67 68 69 71 72 74 74 72 71 70 70 71 71 70 69 68 68 68 68 68 67 67 67 68 69 69 70 71 71 72 71 70 70 68 67 66 66 67 68 68 69 69 69 69 69 69 68 67 67 67 68 69 68 67 66 65 65 66 63 60 62 65 64 62 61 61 63 64 62 59 60 59 59 59 60 59 56 55 55 56 56 56 54 54
68 69 70 71 73 74 75 74 72 71 71 72 72 72 71 70 69 69 69 69 69 69 69 70 70 71 71 71 71 71 71 71 71 70 69 68 67 66 66 66 67 68 68 69 70 70 70 70 70 69 69 69 70 70 68 68 67 66 66 65 62 62 66 66 64 64 64 66 67 65 62 61 61 61 62 63 63 60 58 59 59 60 59 57 56
70 71 72 73 74 75 75 74 72 72 73 73 73 72 71 70 69 70 70 71 71 71 72 73 73 73 73 72 72 71 71 70 70 70 70 69 69 68 68 67 66 66 67 67 68 69 70 70 70 71 70 70 70 71 69 68 68 66 66 67 64 63 65 68 67 66 66 69 70 67 64 62 62 64 66 67 68 66 64 63 62 62 61 59 57
71 72 73 73 73 74 74 74 74 74 74 73 73 72 71 70 71 71 72 73 74 74 74 75 75 75 75 75 74 72 71 70 70 70 70 70 69 69 69 69 69 69 69 69 69 69 70 71 72 72 72 72 72 72 71 69 67 67 67 67 66 64 65 68 70 69 69 71 73 70 65 64 64 65 68 71 72 70 67 66 64 63 62 59 57
70 70 70 71 72 73 74 74 74 74 74 73 73 72 71 72 73 74 75 75 75 76 77 77 77 77 77 76 75 73 72 71 70 70 70 70 70 71 72 72 73 73 73 72 71 70 70 69 70 72 73 73 73 73 73 70 67 66 66 67 67 66 65 68 72 73 72 72 75 74 70 68 68 68 69 72 74 73 70 68 67 66 64 62 60
68 69 70 71 71 72 73 74 74 74 74 74 73 73 73 73 75 75 76 77 77 78 78 79 79 80 79 77 76 74 73 72 71 71 71 71 72 74 75 76 76 75 74 72 71 69 67 66 66 66 68 70 70 71 72 70 67 65 65 66 67 66 66 68 73 76 74 72 76 79 76 73 73 72 71 72 74 73 70 69 68 68 66 64 63
69 70 71 71 72 73 73 74 75 74 74 74 73 74 75 76 76 77 78 79 79 80 81 81 82 81 79 77 76 75 74 73 72 72 73 74 75 75 75 74 73 72 71 69 67 65 64 63 62 62 62 63 64 65 66 67 66 64 63 64 66 66 65 67 72 77 78 75 76 81 81 78 77 78 77 77 76 75 73 71 70 69 68 66 65
71 72 73 73 74 74 75 75 75 74 74 74 75 75 76 77 78 78 80 80 81 82 83 83 83 81 79 77 76 75 74 74 74 75 76 76 75 73 71 70 68 67 66 65 63 61 60 59 58 59 60 59 59 58 59 61 62 61 61 62 65 65 63 66 71 77 80 78 77 81 84 83 79 79 82 83 83 82 80 77 75 73 72 70 68
73 73 74 75 75 76 76 76 75 75 75 75 76 77 77 78 79 80 81 82 84 84 84 83 82 80 78 77 76 75 75 76 76 77 76 74 72 70 68 66 64 63 62 60 59 57 54 52 52 54 56 56 55 54 55 56 56 57 57 59 62 63 62 65 71 77 81 81 79 80 84 86 82 79 80 83 85 85 82 80 78 76 73 70 68
74 75 76 77 77 77 77 77 76 75 75 75 76 77 78 79 81 82 83 85 85 85 83 81 80 79 78 77 76 76 77 78 78 77 74 72 69 67 65 62 60 58 57 55 54 52 50 47 46 47 48 50 52 52 51 50 50 52 53 55 58 60 61 65 70 76 80 82 80 78 82 86 85 80 78 79 81 82 80 78 77 76 72 70 68
76 77 78 78 78 77 76 75 75 74 75 75 76 77 79 81 82 84 85 85 84 82 80 79 79 78 77 77 77 78 79 79 77 75 72 69 66 63 61 59 57 56 54 52 50 49 48 45 41 40 41 43 46 48 47 45 45 47 51 53 54 57 61 65 69 74 79 80 80 80 82 85 86 84 81 79 78 79 79 76 76 76 74 71 70
Wind_Direction
299 297 295 298 298 296 299 303 305 307 308 303 300 301 300 299 297 296 296 295 295 296 294 292 296 301 304 307 310 311 312 311 309 310 314 319 322 322 323 324 317 303 291 284 279 279 282 284 286 286 286 288 291 292 291 289 287 282 275 275 283 291 296 302 308 313 318 323 326 329 334 341 346 351 354 353 349 342 336 331 328 328 330 331 329
293 293 296 298 294 290 292 298 302 305 305 302 301 300 299 297 297 296 296 294 293 293 292 292 295 298 301 304 307 309 309 309 309 309 312 316 321 322 322 324 321 310 295 285 279 280 285 288 289 288 287 286 288 291 292 291 287 283 277 272 275 283 290 294 300 306 311 316 321 324 327 333 338 345 351 354 354 350 345 339 333 331 331 331 330
290 295 297 294 288 286 292 299 302 303 303 302 301 300 298 298 297 297 296 295 294 293 292 293 295 297 299 301 304 306 306 307 307 308 311 314 317 320 321 322 322 314 302 288 277 279 286 291 294 295 293 289 286 288 291 291 286 280 277 272 271 275 282 288 293 299 305 310 315 320 323 327 331 335 343 351 355 355 352 348 343 338 334 332 331
289 295 297 295 290 290 295 299 301 302 301 301 300 299 298 298 298 297 296 295 294 294 294 295 296 297 299 301 302 304 304 304 305 306 308 311 314 317 318 318 319 315 305 291 275 271 276 283 290 294 294 292 288 288 289 287 281 276 275 273 270 270 274 281 287 292 298 303 309 314 319 322 325 328 332 342 352 355 356 354 351 348 342 337 334
291 296 299 299 297 297 299 301 301 301 300 300 299 298 297 297 297 296 295 295 295 295 296 297 297 298 299 300 301 303 304 304 304 305 305 307 310 313 314 314 316 314 306 295 278 266 265 268 277 282 283 285 287 288 288 287 281 274 272 272 270 268 269 274 280 286 291 297 303 308 313 317 320 323 325 331 342 350 355 356 356 356 351 345 340
297 302 303 303 303 304 304 303 302 300 299 298 298 297 296 295 295 295 295 296 296 296 296 297 297 298 298 299 300 301 302 303 303 304 303 305 307 308 310 311 312 312 306 296 285 272 265 262 262 264 266 271 278 282 283 288 287 278 272 271 270 269 268 270 274 279 285 290 297 302 307 311 315 318 321 323 330 340 348 354 358 359 357 352 347
302 304 305 306 306 305 304 302 300 298 297 296 296 295 295 294 294 295 296 296 297 297 297 297 297 297 298 299 299 300 300 301 301 301 301 301 303 304 306 307 308 308 305 297 289 281 273 267 264 266 268 268 270 275 278 284 289 283 274 270 270 270 269 269 270 273 278 284 290 296 302 306 310 313 317 318 321 329 339 348 355 360 1 358 353
303 304 304 305 305 303 302 300 297 297 296 295 294 294 293 293 293 294 295 296 296 296 296 295 296 296 297 297 298 299 299 299 299 298 298 299 300 301 302 304 305 304 302 298 291 285 280 274 268 267 271 270 267 271 276 281 287 287 281 275 271 270 270 270 269 269 273 278 284 290 295 301 305 308 312 315 316 320 329 338 347 356 1 1 357
305 304 303 304 304 303 300 298 295 294 294 293 292 291 291 291 291 292 293 294 294 295 294 294 294 294 295 296 296 297 297 297 297 296 296 296 297 298 299 300 302 301 298 296 292 288 284 280 272 266 266 265 263 266 271 278 282 286 288 284 276 271 270 270 269 268 270 273 278 283 289 295 300 304 306 310 313 315 321 329 339 348 356 0 360
306 305 304 304 302 300 298 295 293 292 291 290 290 290 290 291 292 292 293 293 293 293 293 293 293 294 294 294 294 295 295 295 294 294 293 293 293 294 295 296 298 299 295 292 290 288 286 285 279 272 268 264 261 260 261 267 274 280 287 288 282 274 269 269 269 268 268 270 273 278 283 289 295 299 300 304 308 311 315 321 331 340 349 356 358
305 305 303 302 300 298 296 294 293 292 291 290 290 290 290 291 292 292 293 293 293 293 293 293 293 293 293 293 294 293 293 293 292 292 291 290 290 290 291 292 295 296 293 289 286 283 284 285 283 281 275 268 263 257 252 253 261 270 280 286 285 280 273 270 269 269 268 268 270 274 278 283 289 294 296 298 302 307 311 316 323 331 340 347 353
303 303 301 301 299 298 298 296 295 294 293 292 291 291 291 291 291 292 292 292 292 292 292 292 292 292 292 292 292 292 292 292 291 291 290 289 289 289 290 291 292 292 288 287 285 281 280 280 281 282 277 272 268 259 251 250 252 257 265 275 281 283 280 275 271 270 269 268 269 271 273 277 282 288 292 293 296 300 306 311 317 323 330 338 345
301 301 302 302 301 302 302 301 300 299 298 297 295 294 293 293 293 293 293 293 293 292 292 291 291 291 291 291 291 291 290 290 290 289 288 287 287 288 289 289 289 287 282 280 279 277 276 274 275 277 274 272 271 263 256 254 255 256 257 262 271 277 279 279 276 272 271 270 269 269 270 272 276 283 287 290 291 294 300 306 312 317 322 329 336
299 302 303 305 305 305 305 304 304 303 303 302 301 300 299 298 298 297 297 296 295 294 293 292 292 291 291 290 290 290 289 289 289 288 287 286 286 286 287 287 286 284 281 277 272 268 270 271 269 270 273 272 271 268 262 258 258 258 255 255 261 267 271 275 278 276 275 274 272 271 270 269 271 277 283 286 288 289 293 299 305 311 316 322 328
298 302 304 306 307 306 306 306 306 307 307 307 306 305 305 305 304 303 302 301 299 298 297 295 294 292 291 291 290 289 288 288 287 287 287 286 286 286 286 286 285 283 281 278 271 264 263 268 266 265 269 271 268 266 264 260 258 257 253 251 254 258 261 265 272 277 278 278 277 275 272 269 268 272 279 282 283 285 288 293 298 303 309 315 320
297 300 302 304 305 305 306 306 306 307 308 310 310 310 310 311 310 309 307 305 303 301 300 298 296 294 293 291 290 289 288 287 286 286 286 285 286 286 286 286 285 283 280 277 272 263 260 263 264 261 260 259 258 259 262 260 258 255 250 250 252 255 257 257 262 268 272 278 280 278 276 272 267 269 275 279 280 281 283 288 292 296 301 307 313
296 298 299 301 301 302 303 304 304 305 306 308 309 309 310 311 312 312 310 308 306 303 301 300 299 297 295 293 291 290 288 287 286 285 285 285 285 285 285 284 284 282 279 276 272 266 262 261 261 258 254 252 253 256 260 260 257 254 250 249 251 254 255 254 256 257 263 274 277 277 278 277 271 269 272 275 276 276 279 284 288 292 295 299 305
294 295 297 298 298 300 301 303 303 303 304 305 305 305 306 308 310 311 311 310 308 305 303 301 299 298 296 295 292 290 289 287 286 285 286 286 286 286 286 285 284 282 279 276 273 268 263 259 257 257 255 252 253 255 258 257 255 254 253 250 250 252 253 252 253 252 259 270 272 271 274 276 275 273 271 273 274 273 274 278 284 289 292 294 298
292 293 294 296 297 299 300 302 302 302 302 302 303 303 304 306 308 309 311 310 309 307 304 302 300 298 297 296 294 291 289 288 286 286 287 288 287 286 286 285 283 281 278 277 275 270 265 259 254 256 257 254 252 254 256 254 251 250 253 253 249 250 250 250 250 249 254 262 263 266 271 273 275 274 271 271 272 271 271 274 280 286 291 293 295
290 291 293 295 297 299 300 301 301 301 301 301 302 303 304 306 307 309 310 310 310 307 305 302 300 298 297 295 294 293 291 290 289 288 289 289 289 287 285 284 282 280 279 277 275 271 267 262 257 256 257 256 254 254 254 254 251 247 250 253 250 247 247 248 248 248 252 256 254 257 264 270 273 272 271 270 269 268 267 270 276 281 285 290 293
290 291 294 295 297 299 300 301 301 301 302 302 303 303 304 306 308 310 311 311 310 307 305 302 300 298 296 295 294 294 293 292 291 291 290 289 289 288 286 283 281 279 279 278 275 272 269 266 263 260 258 257 256 254 253 255 255 252 251 254 251 246 245 247 247 247 250 253 251 250 255 264 270 271 271 269 267 266 264 264 271 275 276 280 288
290 293 294 295 297 298 300 301 302 302 303 304 305 305 306 308 310 311 312 311 309 306 304 302 301 299 297 295 294 294 293 293 292 291 290 289 288 287 286 284 281 278 277 276 275 273 271 269 267 265 261 258 256 255 254 254 256 256 255 254 253 249 245 246 247 246 247 251 251 249 250 258 266 268 269 268 266 264 261 260 266 273 273 274 282
291 292 293 295 297 298 300 301 302 303 304 305 305 306 308 310 313 313 312 310 309 307 305 303 302 300 298 296 294 294 293 292 291 290 289 289 287 285 284 283 282 280 277 276 276 274 272 270 269 268 266 262 258 256 255 254 254 254 252 252 254 253 249 246 247 248 248 249 250 250 249 251 259 266 267 266 264 261 260 259 261 268 271 271 277
291 292 293 295 296 298 299 300 302 303 303 304 303 305 308 312 316 316 313 312 312 311 310 307 304 301 299 297 295 293 292 290 290 289 289 289 288 286 284 282 281 280 278 277 276 275 273 271 270 270 268 266 262 257 255 255 256 254 252 255 256 254 251 248 246 247 248 247 248 249 248 247 252 261 265 261 258 258 260 261 260 261 264 267 274
291 291 293 294 295 297 298 299 301 301 301 301 302 305 308 312 316 316 312 313 315 315 314 312 307 303 300 298 295 293 292 290 289 288 287 287 287 286 285 283 280 279 279 278 277 276 274 271 270 269 268 266 265 262 257 254 256 257 257 258 257 252 251 249 245 243 244 245 246 247 247 245 246 254 258 253 252 257 259 260 261 260 260 264 270
291 292 293 294 295 296 297 298 298 298 298 299 301 304 307 310 313 313 309 310 314 316 316 315 311 306 301 298 296 294 292 291 290 288 287 286 286 285 284 283 281 280 279 279 278 277 275 272 269 267 266 265 265 265 263 259 258 260 260 259 258 253 250 248 245 242 241 242 244 246 247 244 242 247 251 250 250 256 258 258 258 255 255 260 263
290 292 293 294 295 296 296 296 297 297 297 299 301 304 306 308 311 311 307 306 311 315 316 316 313 309 303 299 296 294 293 292 291 290 288 287 286 284 283 282 281 281 281 279 278 276 274 272 270 267 264 264 263 263 267 268 265 262 262 261 259 255 251 248 245 243 240 240 241 244 247 246 244 244 245 247 248 252 256 257 256 254 254 259 263
290 291 292 293 294 294 295 296 296 297 298 300 302 304 306 308 309 309 307 307 310 313 315 316 314 311 306 300 297 294 293 293 292 291 290 289 287 285 283 281 280 280 281 281 279 276 273 271 269 267 264 262 262 261 261 262 262 263 266 266 261 256 253 250 247 243 241 240 240 242 245 247 247 245 244 244 246 247 252 255 256 257 257 259 262
289 289 290 291 292 294 295 296 296 297 299 301 303 305 306 308 308 308 308 309 310 312 314 314 313 311 306 301 297 295 293 293 292 291 290 289 288 286 284 282 279 277 277 279 279 278 275 272 269 266 263 260 259 259 257 254 254 255 260 265 264 258 254 251 248 244 242 240 240 242 243 245 247 248 246 245 245 246 250 253 254 257 258 258 258
286 288 289 291 293 294 295 295 296 298 301 303 304 305 306 307 307 307 308 309 310 311 312 313 312 310 306 301 298 295 294 293 292 291 290 289 288 286 284 282 279 276 275 274 276 277 276 274 272 268 264 260 257 256 257 254 249 246 246 253 259 258 253 250 247 244 242 240 239 240 242 242 244 247 247 246 246 246 248 251 252 253 255 257 257
286 287 289 292 293 294 294 296 298 300 302 304 304 305 306 306 307 307 308 309 310 311 312 312 311 308 304 301 298 296 294 293 292 291 290 289 288 286 285 283 280 277 274 271 271 273 274 273 272 270 266 261 258 255 255 253 248 244 244 247 252 254 252 249 246 243 242 240 239 239 240 241 242 242 244 245 247 247 246 247 249 250 252 254 257
288 289 290 292 293 294 296 298 299 300 302 303 304 304 305 306 307 308 309 309 310 311 311 310 309 307 303 300 297 296 295 294 293 292 291 289 287 286 285 283 281 278 275 272 269 270 272 270 269 270 268 264 260 256 253 253 250 245 245 247 251 253 252 248 245 243 242 240 239 238 238 240 241 239 240 243 245 247 246 245 247 250 251 254 257
289 291 292 293 294 295 297 298 299 300 301 302 303 304 304 306 307 308 309 309 310 310 309 309 307 305 301 299 297 295 294 293 293 292 291 289 287 286 285 283 282 279 277 274 270 269 271 270 267 267 267 265 263 258 253 252 252 248 245 247 249 251 251 248 245 243 241 240 240 238 236 238 240 240 239 241 243 245 245 244 245 248 251 254 257
290 291 292 293 294 295 297 297 298 299 300 301 302 303 305 306 307 307 308 308 308 308 308 307 305 302 300 297 296 294 293 292 291 291 290 289 288 287 286 284 283 281 279 276 273 270 269 270 268 266 265 264 263 261 256 252 251 249 246 245 246 248 249 249 245 242 242 240 240 239 237 236 238 240 240 240 240 242 244 244 245 247 250 254 257
289 291 292 293 294 295 296 297 297 298 300 301 303 304 305 306 306 306 307 307 307 307 306 305 303 301 299 297 296 294 293 292 291 290 289 288 288 287 286 286 284 283 281 278 275 272 269 268 268 267 265 263 262 261 258 255 252 249 246 245 243 243 245 247 245 242 241 240 240 240 237 235 236 239 240 239 239 240 242 245 247 248 250 253 255
290 291 292 293 294 294 295 296 297 298 300 302 303 305 305 305 305 306 306 306 306 306 305 304 302 300 298 297 296 295 294 293 292 291 290 289 288 287 287 286 285 284 282 280 278 275 271 268 268 267 265 264 263 261 259 257 254 250 246 244 242 240 240 243 243 241 240 240 239 240 238 235 234 237 240 240 239 241 243 246 249 249 249 250 252
290 291 292 292 292 293 294 295 297 299 301 303 304 305 305 305 305 305 305 305 305 304 304 302 301 300 299 298 297 296 295 295 294 293 292 291 290 289 288 286 285 284 283 281 279 277 274 270 267 267 265 264 263 262 260 257 255 252 248 243 241 239 237 239 240 239 239 238 238 239 238 235 234 236 240 241 240 241 244 246 248 248 248 247 248
289 290 290 290 291 293 294 296 298 300 302 303 304 304 304 305 305 304 303 303 303 303 302 301 300 300 299 298 298 297 296 296 295 294 293 292 291 290 289 288 286 285 283 282 280 278 276 273 269 267 266 264 262 261 260 258 256 254 250 244 241 238 235 236 237 237 236 235 235 237 237 236 235 236 238 241 241 241 243 245 247 247 247 246 246
288 288 289 291 292 294 296 297 299 301 302 303 303 303 304 304 304 303 302 302 301 301 301 300 300 299 299 298 297 297 296 295 294 293 292 292 291 290 289 288 287 285 284 283 281 279 276 274 272 269 268 267 264 261 260 258 256 254 251 246 242 238 234 233 234 235 233 230 230 234 236 236 236 236 237 239 241 241 241 242 244 245 245 245 244
287 288 290 293 294 296 297 298 299 301 302 302 302 303 303 303 302 301 300 300 300 301 301 300 300 300 299 298 298 297 296 295 294 293 292 291 290 290 289 288 287 286 285 284 282 281 278 275 273 270 269 267 265 262 259 257 255 253 251 247 242 239 235 231 232 233 229 225 224 228 234 236 236 236 236 235 238 240 240 239 240 240 241 242 243
288 290 292 294 295 296 297 298 300 301 301 302 302 303 303 302 301 300 300 300 300 301 301 301 300 300 299 299 299 298 298 297 295 294 292 291 290 289 288 288 287 286 285 284 282 281 279 277 274 271 269 267 265 263 260 257 254 252 251 248 242 239 235 230 229 230 227 223 221 223 229 234 234 235 235 232 232 234 235 236 236 235 237 240 242
289 291 293 294 295 296 296 298 300 301 301 302 302 303 303 302 301 301 301 301 302 302 301 301 300 300 300 300 300 300 299 298 297 295 294 293 292 290 288 287 285 284 283 282 281 280 278 276 275 272 270 267 265 263 260 257 254 251 250 248 243 238 234 230 227 227 226 222 219 219 225 231 232 233 234 231 229 229 231 234 235 235 235 237 241
289 290 292 293 294 295 296 298 300 301 301 302 303 303 303 302 302 302 303 303 302 302 302 301 302 302 302 303 303 302 301 300 299 298 297 296 295 294 292 289 287 284 282 281 279 278 277 276 274 272 270 268 266 264 260 257 255 251 249 247 243 238 233 230 227 226 225 221 218 217 222 227 230 231 232 230 229 229 231 234 237 237 237 238 240
287 289 291 293 295 296 298 300 301 302 303 303 303 303 303 302 303 303 304 303 303 303 303 304 305 305 305 305 305 304 303 302 301 301 301 300 298 296 294 292 289 287 284 281 279 277 276 275 274 272 271 268 266 265 262 258 255 252 248 246 243 238 233 228 226 225 224 220 217 216 219 223 225 226 228 228 229 230 231 233 236 238 239 239 240
288 290 292 294 296 298 300 301 302 303 303 303 303 302 303 303 304 304 304 304 305 305 306 306 306 307 307 306 305 305 304 304 304 303 302 301 300 298 296 294 292 289 287 284 282 280 277 275 273 272 270 268 266 264 262 260 256 252 248 246 243 239 233 228 224 224 224 221 216 214 217 221 222 222 224 225 228 231 233 234 236 238 239 240 241
290 293 294 296 298 299 300 301 302 303 303 303 302 302 303 304 304 305 305 305 306 306 307 307 307 307 307 306 306 306 306 306 306 305 304 302 301 299 298 296 294 292 290 288 286 284 281 278 275 272 270 268 266 263 262 260 257 252 248 245 243 239 233 227 224 222 223 221 216 214 216 220 222 222 222 223 226 230 232 234 236 237 238 240 242
292 294 295 297 298 299 300 301 302 302 302 302 302 303 304 305 305 306 306 306 307 307 307 307 307 307 307 307 307 308 308 308 307 306 304 303 302 300 299 297 296 295 293 291 289 287 285 282 279 275 272 268 266 263 262 260 258 254 249 244 242 239 233 228 224 222 222 221 217 215 216 219 222 224 224 225 227 229 233 235 236 237 239 241 244
292 294 295 296 297 299 300 301 301 300 300 300 302 304 305 305 305 306 306 306 307 307 307 307 307 307 307 308 309 309 309 308 307 306 305 304 303 302 301 299 298 296 294 292 290 288 285 283 280 278 275 271 268 265 262 259 258 254 249 244 241 239 234 228 224 222 221 221 219 216 216 218 221 224 226 229 230 232 235 237 237 239 241 243 245
293 294 295 297 298 299 299 299 299 299 300 301 303 304 305 305 305 306 306 306 306 306 306 306 307 307 308 309 309 309 309 308 308 307 307 306 305 304 303 302 300 297 295 293 291 288 285 282 279 276 275 273 270 266 261 258 256 254 250 244 239 237 234 228 225 223 221 220 220 218 217 218 220 223 226 229 232 234 236 237 238 239 240 242 244
294 295 296 297 298 299 299 299 300 300 302 303 303 304 304 304 305 305 305 305 305 306 306 306 307 308 309 310 310 309 309 309 309 309 309 308 307 306 305 304 302 300 298 296 294 292 288 284 278 275 273 272 270 267 262 257 253 251 249 244 237 233 231 228 225 223 221 220 219 219 219 219 221 223 224 227 230 233 234 235 237 238 239 240 240
296 297 297 298 299 299 300 300 300 301 302 302 302 303 304 304 305 305 305 305 306 306 306 307 308 309 310 310 310 311 311 311 311 310 310 309 309 309 308 307 306 304 302 301 300 298 296 291 285 278 273 269 268 267 264 259 252 247 245 242 237 230 227 226 225 223 221 220 218 218 219 220 221 223 225 225 228 231 232 232 234 236 238 237 237
Height
10794 10792 10789 10790 10791 10792 10791 10791 10791 10791 10791 10792 10792 10791 10791 10790 10789 10788 10788 10787 10786 10785 10783 10782 10780 10778 10776 10775 10774 10773 10772 10771 10769 10768 10766 10763 10761 10760 10758 10755 10753 10751 10750 10749 10749 10749 10749 10749 10749 10749 10749 10749 10749 10749 10749 10748 10747 10746 10745 10745 10744 10744 10743 10743 10742 10741 10740 10739 10738 10737 10735 10734 10732 10730 10727 10725 10723 10721 10718 10717 10715 10714 10713 10711 10710
10792 10790 10789 10790 10790 10790 10790 10789 10789 10789 10789 10789 10789 10788 10788 10787 10787 10786 10785 10784 10783 10782 10781 10779 10778 10776 10775 10773 10771 10770 10769 10767 10766 10764 10763 10760 10758 10757 10755 10753 10751 10749 10747 10747 10746 10746 10747 10747 10746 10746 10746 10746 10746 10746 10746 10745 10744 10743 10743 10743 10742 10742 10741 10741 10740 10739 10739 10738 10737 10736 10735 10733 10731 10730 10727 10725 10723 10720 10718 10716 10715 10713 10712 10710 10709
10789 10788 10788 10789 10789 10788 10788 10787 10787 10786 10786 10785 10785 10785 10785 10784 10784 10783 10782 10781 10780 10780 10778 10776 10775 10774 10772 10771 10769 10768 10766 10765 10763 10761 10760 10758 10756 10754 10752 10750 10748 10746 10745 10744 10744 10744 10744 10744 10743 10743 10742 10742 10742 10742 10742 10742 10741 10741 10740 10740 10739 10739 10739 10738 10738 10737 10737 10736 10736 10735 10734 10732 10731 10729 10727 10725 10723 10721 10718 10716 10714 10712 10711 10709 10708
10787 10786 10786 10787 10787 10786 10786 10785 10784 10783 10782 10782 10782 10781 10781 10781 10780 10780 10779 10778 10777 10776 10774 10773 10772 10770 10769 10767 10766 10765 10763 10762 10760 10759 10757 10755 10753 10751 10750 10748 10746 10744 10743 10742 10741 10741 10741 10741 10741 10740 10740 10739 10739 10739 10739 10739 10738 10738 10737 10737 10737 10737 10736 10736 10735 10735 10735 10734 10734 10733 10732 10731 10730 10729 10727 10725 10723 10721 10719 10716 10714 10712 10711 10709 10707
10784 10783 10783 10783 10784 10783 10783 10782 10781 10780 10780 10779 10778 10778 10778 10777 10777 10776 10775 10774 10773 10772 10770 10769 10767 10766 10765 10764 10763 10761 10760 10758 10757 10756 10755 10753 10751 10748 10747 10745 10744 10742 10740 10739 10739 10739 10738 10737 10737 10737 10736 10736 10736 10736 10736 10735 10735 10735 10734 10734 10734 10734 10734 10733 10733 10733 10732 10732 10732 10732 10731 10730 10729 10728 10726 10725 10723 10721 10719 10717 10714 10712 10711 10709 10707
10781 10781 10781 10781 10780 10780 10780 10779 10778 10777 10777 10776 10776 10775 10774 10774 10773 10772 10771 10770 10769 10767 10766 10764 10763 10762 10760 10759 10759 10757 10756 10755 10753 10751 10750 10750 10748 10746 10744 10742 10741 10739 10738 10736 10735 10735 10735 10734 10733 10733 10733 10732 10732 10732 10732 10733 10732 10732 10732 10731 10731 10731 10731 10731 10731 10730 10730 10730 10730 10730 10729 10729 10728 10726 10725 10724 10722 10720 10718 10717 10715 10712 10711 10709 10707
10779 10779 10778 10778 10778 10777 10776 10775 10774 10774 10774 10773 10772 10772 10771 10770 10769 10768 10767 10765 10764 10763 10761 10760 10758 10757 10756 10754 10753 10752 10752 10751 10750 10748 10746 10746 10745 10743 10741 10739 10737 10735 10734 10733 10732 10731 10731 10730 10730 10729 10729 10729 10729 10729 10729 10730 10730 10729 10729 10728 10728 10728 10728 10728 10728 10728 10728 10728 10727 10727 10727 10727 10726 10725 10724 10723 10721 10720 10718 10716 10714 10712 10710 10709 10706
10777 10777 10776 10776 10775 10774 10773 10772 10772 10771 10771 10770 10769 10768 10767 10766 10765 10764 10762 10761 10760 10759 10757 10756 10754 10752 10751 10750 10749 10747 10747 10746 10746 10744 10743 10742 10741 10740 10738 10736 10734 10732 10730 10730 10729 10728 10727 10727 10727 10727 10726 10726 10726 10726 10726 10726 10727 10726 10726 10726 10725 10725 10725 10725 10726 10726 10725 10725 10725 10725 10725 10725 10725 10724 10723 10722 10720 10719 10717 10716 10714 10712 10710 10708 10707
10775 10774 10774 10773 10772 10771 10771 10770 10769 10769 10768 10767 10766 10765 10764 10762 10761 10760 10758 10757 10756 10754 10753 10751 10750 10748 10747 10746 10744 10743 10742 10741 10741 10740 10739 10738 10737 10735 10734 10732 10730 10729 10727 10726 10725 10724 10724 10723 10723 10723 10723 10723 10722 10722 10723 10723 10723 10723 10723 10723 10723 10722 10722 10722 10723 10723 10723 10723 10723 10723 10723 10723 10722 10722 10721 10720 10719 10718 10717 10715 10714 10712 10710 10708 10707
10771 10771 10771 10770 10770 10769 10768 10768 10767 10766 10765 10764 10763 10762 10760 10759 10757 10756 10754 10753 10751 10750 10748 10747 10745 10744 10743 10741 10740 10739 10738 10737 10736 10735 10735 10734 10733 10732 10730 10729 10727 10725 10724 10723 10722 10720 10720 10719 10719 10718 10719 10719 10718 10719 10719 10719 10720 10720 10720 10720 10720 10719 10719 10719 10720 10720 10720 10721 10721 10721 10720 10720 10720 10720 10720 10719 10718 10717 10716 10714 10713 10711 10710 10708 10707
10768 10768 10768 10767 10767 10766 10765 10765 10764 10763 10762 10761 10759 10758 10757 10755 10753 10752 10750 10748 10747 10746 10744 10742 10741 10739 10738 10737 10735 10734 10733 10732 10731 10731 10730 10729 10729 10728 10726 10726 10724 10723 10721 10720 10719 10717 10716 10715 10715 10714 10714 10714 10714 10715 10715 10715 10716 10716 10717 10717 10717 10717 10717 10717 10717 10717 10718 10718 10718 10718 10718 10718 10718 10718 10718 10717 10716 10715 10714 10713 10712 10711 10710 10708 10706
10765 10765 10764 10764 10763 10762 10762 10761 10760 10759 10758 10757 10755 10754 10753 10751 10749 10747 10746 10744 10743 10741 10740 10738 10736 10735 10733 10732 10731 10729 10728 10727 10726 10725 10725 10724 10724 10723 10722 10721 10720 10719 10719 10718 10716 10713 10711 10711 10711 10711 10711 10711 10710 10710 10710 10711 10711 10712 10713 10713 10714 10714 10714 10714 10714 10714 10715 10715 10715 10716 10716 10716 10715 10715 10715 10715 10715 10714 10713 10712 10711 10710 10709 10708 10706
10761 10761 10761 10760 10759 10758 10758 10757 10756 10755 10753 10752 10751 10749 10748 10747 10745 10743 10741 10740 10738 10737 10736 10734 10732 10730 10729 10727 10726 10725 10723 10722 10721 10720 10720 10719 10719 10718 10717 10716 10715 10715 10715 10715 10713 10710 10707 10706 10707 10706 10706 10707 10707 10707 10707 10707 10707 10708 10709 10709 10710 10710 10711 10711 10711 10712 10712 10712 10713 10713 10713 10713 10713 10713 10713 10713 10713 10712 10711 10710 10710 10709 10708 10707 10705
10758 10758 10757 10756 10755 10754 10754 10753 10752 10750 10749 10748 10746 10745 10744 10742 10741 10739 10737 10735 10733 10732 10731 10730 10728 10726 10724 10723 10722 10720 10719 10717 10716 10715 10715 10714 10714 10713 10712 10711 10710 10710 10709 10709 10708 10707 10704 10703 10704 10703 10702 10704 10705 10704 10703 10703 10703 10704 10705 10705 10706 10706 10707 10708 10708 10709 10709 10709 10710 10710 10710 10710 10710 10710 10710 10710 10710 10710 10710 10709 10708 10707 10707 10706 10705
10754 10754 10753 10753 10752 10751 10750 10749 10748 10747 10746 10744 10742 10741 10740 10738 10737 10735 10733 10731 10728 10727 10726 10725 10724 10722 10720 10719 10717 10716 10714 10713 10711 10710 10709 10709 10708 10708 10707 10706 10705 10704 10703 10703 10702 10702 10700 10700 10700 10699 10699 10701 10702 10700 10698 10698 10699 10699 10701 10701 10702 10702 10703 10704 10705 10706 10706 10706 10707 10707 10707 10707 10707 10708 10708 10708 10708 10708 10707 10707 10707 10706 10705 10704 10703
10750 10750 10749 10748 10748 10747 10746 10746 10745 10744 10743 10741 10739 10737 10736 10734 10733 10731 10729 10727 10725 10722 10720 10720 10718 10717 10716 10714 10713 10712 10710 10708 10706 10705 10704 10703 10702 10702 10701 10700 10699 10698 10697 10697 10696 10696 10696 10695 10696 10695 10696 10697 10697 10694 10693 10694 10695 10695 10697 10697 10698 10698 10699 10700 10701 10702 10703 10703 10704 10704 10704 10704 10704 10704 10705 10705 10705 10705 10705 10705 10705 10704 10704 10703 10702
10746 10746 10745 10744 10744 10743 10743 10742 10741 10740 10739 10738 10736 10734 10732 10731 10729 10728 10726 10724 10721 10718 10716 10714 10713 10712 10711 10710 10708 10707 10705 10704 10701 10700 10699 10698 10697 10696 10696 10695 10694 10693 10691 10691 10690 10690 10690 10690 10690 10691 10691 10691 10691 10690 10690 10690 10691 10692 10693 10694 10694 10694 10695 10696 10696 10698 10698 10699 10700 10701 10701 10701 10701 10701 10702 10702 10702 10702 10702 10702 10702 10702 10702 10701 10701
10742 10742 10741 10741 10740 10739 10739 10738 10737 10736 10735 10734 10732 10731 10729 10727 10726 10724 10722 10720 10717 10715 10712 10710 10708 10707 10706 10705 10704 10702 10701 10699 10698 10695 10694 10694 10693 10691 10690 10690 10689 10688 10686 10685 10685 10684 10684 10684 10685 10685 10685 10686 10685 10685 10686 10686 10686 10688 10688 10689 10689 10690 10691 10691 10692 10693 10694 10695 10696 10697 10697 10697 10698 10698 10698 10699 10699 10699 10700 10700 10700 10700 10700 10699 10699
10738 10738 10737 10737 10736 10736 10735 10734 10733 10732 10731 10730 10728 10727 10725 10723 10722 10720 10718 10716 10714 10711 10708 10705 10703 10702 10700 10699 10698 10697 10696 10694 10693 10692 10689 10688 10688 10687 10686 10685 10684 10683 10682 10681 10680 10679 10679 10679 10680 10679 10679 10680 10681 10681 10681 10682 10682 10683 10684 10684 10685 10686 10686 10686 10687 10689 10689 10690 10692 10693 10693 10694 10694 10694 10694 10695 10696 10696 10696 10697 10697 10697 10697 10697 10697
10734 10734 10733 10733 10732 10732 10731 10730 10729 10729 10727 10726 10725 10723 10721 10719 10718 10716 10714 10712 10709 10707 10704 10701 10699 10697 10695 10694 10693 10692 10691 10689 10688 10687 10686 10684 10683 10683 10682 10681 10679 10678 10677 10676 10675 10674 10673 10674 10675 10675 10674 10674 10675 10676 10676 10677 10677 10678 10679 10679 10680 10681 10681 10681 10682 10683 10685 10685 10687 10688 10689 10690 10691 10690 10691 10691 10692 10693 10693 10693 10694 10694 10694 10694 10694
10730 10730 10729 10728 10728 10727 10727 10726 10725 10725 10723 10722 10721 10719 10717 10715 10713 10711 10709 10707 10704 10702 10699 10696 10694 10692 10690 10689 10687 10686 10684 10684 10683 10682 10682 10680 10679 10677 10677 10676 10675 10674 10673 10671 10670 10669 10668 10668 10669 10669 10669 10669 10669 10670 10670 10671 10671 10672 10673 10673 10673 10675 10675 10676 10677 10678 10680 10680 10681 10683 10684 10686 10686 10686 10687 10688 10688 10689 10689 10690 10690 10691 10691 10691 10691
10726 10725 10724 10724 10723 10723 10722 10722 10721 10720 10719 10718 10716 10715 10713 10711 10709 10707 10704 10702 10699 10697 10694 10692 10689 10687 10685 10683 10682 10680 10679 10678 10677 10676 10676 10676 10675 10673 10672 10671 10670 10669 10668 10667 10665 10664 10664 10663 10663 10663 10664 10664 10664 10664 10665 10665 10666 10667 10667 10667 10667 10668 10670 10671 10672 10673 10675 10676 10676 10678 10680 10681 10682 10682 10683 10684 10684 10685 10686 10687 10687 10687 10688 10688 10688
10721 10720 10719 10719 10718 10718 10717 10717 10716 10715 10715 10713 10712 10710 10708 10706 10704 10701 10699 10696 10694 10692 10690 10687 10685 10683 10681 10679 10677 10675 10674 10672 10671 10671 10670 10670 10670 10669 10667 10666 10664 10663 10663 10662 10660 10659 10659 10658 10658 10657 10657 10657 10658 10658 10658 10659 10660 10661 10661 10661 10661 10661 10663 10665 10667 10668 10670 10671 10672 10673 10675 10676 10676 10677 10678 10679 10680 10681 10682 10683 10684 10684 10684 10685 10685
10716 10715 10714 10714 10713 10713 10712 10712 10711 10711 10710 10709 10707 10706 10704 10701 10699 10696 10693 10691 10689 10687 10684 10682 10680 10678 10676 10674 10672 10670 10669 10668 10666 10665 10665 10664 10664 10663 10662 10661 10660 10657 10656 10657 10655 10653 10653 10653 10653 10652 10651 10651 10651 10652 10652 10653 10654 10655 10656 10655 10655 10656 10657 10659 10661 10662 10664 10665 10666 10668 10670 10671 10672 10672 10673 10675 10676 10677 10678 10679 10680 10680 10681 10681 10682
10711 10710 10709 10709 10708 10708 10708 10707 10707 10706 10705 10704 10702 10700 10698 10696 10694 10692 10689 10687 10684 10682 10680 10677 10675 10672 10670 10668 10667 10665 10664 10663 10661 10660 10660 10659 10658 10658 10656 10655 10654 10652 10650 10650 10649 10647 10646 10647 10647 10647 10646 10645 10646 10646 10646 10647 10648 10649 10650 10649 10649 10650 10651 10652 10654 10656 10657 10659 10660 10662 10664 10665 10667 10667 10668 10669 10671 10672 10673 10674 10675 10676 10677 10678 10679
10706 10705 10704 10704 10704 10703 10703 10703 10702 10701 10700 10698 10697 10695 10693 10691 10689 10687 10685 10682 10680 10677 10675 10672 10669 10667 10665 10662 10660 10659 10658 10656 10656 10655 10654 10653 10652 10652 10651 10649 10648 10647 10645 10644 10642 10641 10640 10640 10641 10640 10640 10640 10640 10640 10640 10643 10645 10645 10645 10644 10642 10643 10644 10645 10647 10649 10651 10653 10654 10656 10658 10660 10661 10662 10662 10664 10666 10667 10668 10669 10670 10671 10672 10673 10675
10701 10700 10699 10699 10699 10699 10698 10698 10697 10696 10694 10693 10691 10689 10688 10686 10684 10682 10679 10677 10674 10672 10669 10667 10664 10661 10659 10656 10654 10653 10651 10649 10649 10648 10647 10646 10646 10645 10645 10644 10642 10640 10638 10637 10636 10634 10633 10633 10633 10633 10634 10635 10634 10635 10637 10639 10640 10639 10639 10637 10635 10635 10637 10638 10640 10642 10644 10646 10648 10649 10651 10653 10655 10656 10657 10658 10660 10662 10663 10664 10665 10666 10667 10668 10670
10696 10695 10694 10694 10694 10694 10693 10692 10691 10690 10689 10687 10685 10684 10682 10680 10678 10676 10673 10671 10668 10665 10663 10660 10657 10655 10652 10650 10647 10645 10644 10642 10641 10640 10639 10639 10638 10637 10637 10638 10637 10636 10633 10631 10628 10626 10626 10627 10627 10626 10628 10629 10628 10629 10631 10631 10631 10633 10634 10631 10628 10628 10629 10631 10632 10634 10636 10638 10640 10643 10645 10647 10649 10650 10652 10653 10654 10656 10658 10659 10659 10661 10662 10663 10665
10691 10690 10690 10690 10690 10689 10688 10687 10686 10684 10683 10681 10679 10678 10676 10674 10671 10669 10666 10664 10661 10659 10656 10653 10650 10648 10645 10643 10640 10638 10636 10635 10634 10633 10631 10630 10630 10629 10629 10629 10630 10630 10628 10626 10623 10618 10617 10620 10620 10619 10620 10621 10622 10622 10622 10622 10622 10624 10624 10622 10619 10619 10620 10622 10624 10626 10628 10631 10633 10635 10638 10640 10642 10644 10646 10648 10649 10651 10653 10654 10654 10656 10657 10659 10660
10686 10686 10685 10685 10685 10684 10683 10682 10680 10678 10677 10675 10673 10671 10669 10667 10665 10662 10660 10657 10655 10652 10649 10646 10643 10640 10638 10635 10633 10631 10629 10627 10626 10625 10624 10622 10621 10620 10620 10620 10620 10622 10622 10622 10619 10612 10610 10611 10611 10611 10612 10613 10614 10615 10614 10614 10615 10613 10611 10611 10609 10609 10611 10613 10615 10617 10620 10623 10625 10628 10630 10633 10636 10638 10640 10642 10643 10644 10647 10648 10649 10651 10652 10654 10655
10682 10681 10681 10681 10680 10679 10677 10676 10674 10673 10671 10670 10668 10665 10663 10661 10658 10656 10653 10650 10647 10644 10641 10638 10635 10632 10630 10627 10625 10623 10621 10619 10618 10617 10615 10614 10613 10612 10611 10610 10610 10612 10613 10615 10614 10607 10603 10605 10603 10601 10603 10605 10605 10606 10606 10605 10606 10605 10603 10602 10601 10601 10603 10604 10606 10609 10612 10614 10617 10620 10623 10625 10628 10631 10633 10635 10637 10638 10640 10642 10644 10645 10647 10648 10650
10677 10676 10676 10675 10674 10673 10671 10670 10668 10667 10666 10664 10662 10659 10656 10654 10651 10648 10645 10642 10639 10636 10633 10630 10627 10624 10621 10619 10617 10615 10613 10611 10609 10608 10607 10605 10604 10603 10602 10601 10600 10602 10603 10605 10607 10602 10595 10596 10597 10592 10592 10595 10596 10596 10597 10596 10596 10597 10596 10595 10594 10594 10595 10596 10598 10600 10603 10606 10608 10612 10615 10617 10620 10624 10626 10628 10630 10632 10633 10635 10638 10640 10641 10643 10644
10671 10671 10670 10669 10668 10667 10665 10664 10662 10661 10659 10657 10655 10652 10649 10646 10643 10640 10637 10634 10631 10628 10625 10622 10619 10616 10613 10610 10608 10606 10605 10603 10601 10599 10598 10596 10595 10594 10593 10592 10591 10591 10593 10594 10596 10595 10588 10586 10588 10586 10583 10584 10586 10585 10587 10588 10587 10587 10588 10587 10586 10587 10587 10588 10589 10591 10594 10598 10600 10603 10606 10609 10612 10615 10619 10621 10624 10626 10627 10629 10631 10634 10635 10636 10638
10666 10665 10665 10663 10662 10661 10660 10658 10656 10655 10653 10651 10648 10645 10642 10639 10636 10633 10629 10626 10623 10620 10617 10614 10611 10608 10605 10602 10600 10598 10596 10594 10592 10590 10589 10586 10585 10584 10583 10583 10581 10580 10581 10583 10584 10586 10583 10576 10576 10577 10575 10574 10576 10575 10575 10578 10578 10578 10579 10578 10578 10580 10580 10580 10582 10584 10586 10589 10592 10594 10598 10601 10604 10607 10611 10614 10617 10620 10621 10622 10625 10627 10629 10630 10632
10660 10660 10659 10658 10657 10655 10654 10652 10650 10648 10646 10644 10641 10639 10635 10632 10629 10625 10622 10618 10615 10612 10609 10606 10603 10600 10597 10594 10591 10589 10587 10585 10583 10581 10580 10577 10576 10574 10573 10572 10571 10569 10569 10571 10572 10574 10574 10569 10565 10565 10565 10564 10565 10565 10565 10566 10567 10568 10570 10569 10570 10572 10572 10572 10574 10576 10578 10581 10583 10586 10589 10593 10596 10599 10603 10607 10610 10613 10615 10616 10618 10621 10623 10624 10626
10655 10654 10653 10652 10651 10649 10648 10646 10644 10642 10640 10637 10634 10632 10628 10625 10621 10618 10614 10611 10607 10604 10601 10598 10594 10591 10588 10586 10583 10581 10578 10576 10574 10572 10570 10568 10566 10565 10564 10561 10560 10559 10557 10557 10559 10561 10563 10561 10556 10553 10554 10554 10554 10554 10554 10555 10556 10558 10560 10560 10560 10561 10563 10565 10567 10568 10569 10572 10575 10578 10581 10584 10588 10592 10595 10599 10603 10605 10608 10609 10611 10614 10616 10618 10620
10649 10648 10647 10646 10645 10643 10641 10639 10637 10635 10633 10630 10627 10624 10621 10617 10614 10610 10606 10603 10600 10596 10593 10590 10586 10583 10580 10577 10575 10572 10570 10568 10566 10563 10561 10559 10556 10555 10554 10552 10550 10548 10546 10545 10546 10547 10549 10550 10547 10543 10542 10543 10544 10542 10541 10543 10545 10546 10548 10550 10549 10551 10554 10557 10559 10560 10561 10564 10567 10570 10573 10577 10581 10584 10587 10590 10594 10598 10600 10602 10604 10606 10609 10612 10615
10643 10642 10641 10640 10639 10637 10635 10632 10630 10628 10626 10623 10620 10617 10613 10610 10606 10602 10598 10595 10592 10589 10585 10582 10578 10575 10572 10569 10566 10564 10562 10559 10557 10555 10552 10549 10546 10544 10543 10541 10539 10537 10536 10534 10534 10534 10535 10535 10535 10533 10530 10531 10533 10532 10529 10530 10533 10534 10536 10538 10539 10541 10544 10548 10550 10552 10553 10557 10560 10562 10566 10569 10572 10576 10579 10582 10585 10589 10592 10595 10597 10600 10602 10605 10609
10637 10636 10635 10634 10632 10630 10628 10625 10624 10622 10619 10616 10612 10609 10606 10603 10599 10595 10591 10587 10584 10581 10578 10574 10571 10568 10564 10561 10558 10555 10553 10551 10548 10546 10544 10540 10537 10534 10532 10530 10528 10526 10524 10522 10521 10521 10521 10521 10521 10520 10518 10517 10519 10520 10517 10518 10521 10522 10523 10526 10529 10530 10534 10538 10540 10543 10545 10549 10552 10554 10557 10561 10564 10568 10571 10574 10576 10580 10584 10588 10590 10593 10595 10599 10602
10632 10630 10629 10627 10625 10623 10621 10618 10617 10615 10612 10609 10605 10602 10599 10595 10592 10588 10583 10580 10576 10573 10570 10566 10563 10560 10556 10553 10549 10546 10543 10541 10539 10536 10535 10532 10528 10524 10521 10519 10517 10514 10512 10510 10509 10507 10507 10507 10506 10505 10504 10503 10503 10505 10505 10505 10508 10509 10510 10514 10519 10520 10523 10527 10530 10533 10536 10539 10542 10546 10549 10552 10556 10559 10562 10566 10568 10571 10576 10580 10583 10586 10589 10592 10595
10626 10624 10622 10620 10618 10616 10613 10612 10611 10608 10604 10601 10598 10595 10592 10588 10584 10580 10576 10572 10569 10565 10562 10558 10555 10551 10547 10544 10540 10536 10532 10529 10527 10524 10523 10521 10519 10516 10512 10509 10506 10503 10500 10497 10496 10494 10493 10492 10491 10490 10490 10489 10488 10489 10491 10492 10494 10497 10497 10501 10507 10509 10511 10516 10520 10522 10525 10529 10534 10538 10541 10543 10547 10550 10554 10558 10561 10563 10566 10570 10574 10578 10582 10585 10587
10620 10618 10616 10614 10611 10608 10606 10605 10603 10600 10597 10593 10590 10587 10583 10580 10576 10572 10568 10564 10560 10557 10553 10549 10546 10542 10539 10535 10531 10526 10521 10517 10513 10511 10509 10507 10506 10504 10502 10499 10496 10492 10489 10485 10482 10480 10479 10477 10476 10475 10475 10475 10473 10473 10476 10477 10479 10484 10485 10488 10494 10498 10499 10505 10510 10512 10515 10520 10524 10529 10532 10535 10539 10542 10545 10549 10552 10554 10557 10561 10566 10570 10573 10577 10580
10614 10612 10610 10608 10605 10601 10598 10597 10595 10592 10589 10586 10582 10579 10575 10571 10567 10563 10560 10556 10552 10548 10544 10540 10536 10532 10529 10525 10521 10517 10512 10507 10503 10499 10496 10493 10491 10489 10486 10484 10482 10479 10477 10474 10470 10468 10466 10464 10462 10460 10460 10460 10458 10457 10460 10462 10465 10469 10472 10475 10480 10485 10488 10494 10499 10502 10504 10509 10514 10519 10523 10527 10531 10534 10536 10539 10542 10546 10550 10554 10557 10561 10564 10568 10572
10609 10607 10604 10601 10598 10594 10591 10589 10586 10583 10581 10577 10574 10571 10567 10563 10559 10555 10551 10547 10543 10539 10535 10530 10526 10523 10518 10514 10510 10507 10503 10498 10494 10489 10485 10481 10477 10474 10470 10467 10465 10462 10461 10459 10458 10456 10454 10451 10448 10445 10444 10445 10444 10442 10443 10447 10451 10455 10459 10462 10466 10472 10477 10483 10488 10490 10492 10497 10504 10510 10514 10517 10521 10525 10527 10529 10533 10537 10541 10545 10549 10552 10556 10560 10564
10603 10600 10598 10594 10591 10587 10584 10581 10578 10575 10572 10569 10566 10563 10559 10555 10551 10547 10543 10538 10534 10529 10526 10522 10517 10513 10509 10504 10500 10496 10492 10489 10485 10480 10475 10470 10465 10460 10456 10452 10448 10446 10443 10441 10441 10440 10439 10438 10435 10432 10429 10428 10429 10428 10428 10431 10437 10441 10445 10449 10452 10458 10464 10470 10476 10478 10479 10486 10495 10500 10503 10507 10511 10514 10517 10520 10523 10528 10533 10537 10540 10544 10548 10552 10555
10596 10594 10591 10587 10584 10581 10577 10573 10570 10567 10564 10561 10558 10554 10551 10547 10542 10538 10534 10530 10525 10521 10516 10512 10508 10503 10499 10495 10491 10486 10482 10478 10474 10470 10465 10460 10455 10449 10443 10438 10433 10429 10426 10424 10423 10422 10422 10421 10420 10418 10414 10412 10413 10413 10413 10416 10422 10427 10432 10436 10439 10445 10452 10458 10463 10467 10469 10475 10483 10488 10493 10496 10499 10504 10509 10511 10515 10520 10524 10528 10532 10535 10540 10543 10546
10589 10587 10584 10581 10578 10574 10571 10567 10563 10560 10556 10553 10549 10546 10542 10538 10534 10529 10526 10521 10517 10512 10507 10503 10499 10494 10489 10485 10481 10477 10473 10468 10464 10459 10454 10449 10444 10438 10432 10426 10421 10416 10412 10409 10407 10406 10405 10404 10403 10402 10400 10399 10399 10400 10401 10403 10407 10412 10419 10423 10426 10432 10440 10447 10452 10456 10459 10464 10471 10478 10483 10486 10489 10495 10500 10503 10507 10512 10515 10520 10524 10527 10531 10535 10538
10583 10580 10577 10574 10571 10568 10564 10560 10557 10553 10549 10546 10542 10538 10534 10530 10526 10521 10517 10513 10509 10504 10499 10494 10489 10485 10481 10477 10472 10468 10463 10459 10454 10449 10443 10438 10432 10426 10421 10415 10410 10405 10400 10396 10395 10393 10392 10391 10389 10387 10386 10385 10386 10389 10390 10391 10393 10398 10405 10410 10415 10421 10430 10438 10441 10444 10448 10453 10460 10467 10473 10476 10481 10486 10490 10494 10499 10503 10507 10512 10516 10519 10523 10527 10529
10575 10573 10570 10567 10564 10561 10557 10554 10550 10546 10542 10538 10534 10530 10526 10522 10518 10514 10509 10505 10500 10495 10491 10485 10480 10476 10472 10467 10463 10459 10454 10449 10443 10438 10432 10426 10420 10414 10409 10404 10399 10394 10389 10385 10382 10381 10380 10380 10379 10376 10374 10374 10374 10376 10377 10379 10382 10386 10391 10398 10404 10410 10420 10426 10429 10433 10438 10443 10449 10458 10465 10469 10474 10479 10483 10486 10490 10494 10499 10504 10507 10511 10515 10518 10521
10568 10565 10563 10559 10556 10553 10549 10546 10542 10538 10534 10531 10527 10523 10519 10514 10510 10506 10501 10496 10492 10487 10482 10477 10472 10468 10463 10458 10454 10449 10444 10438 10432 10427 10421 10415 10410 10404 10399 10393 10388 10384 10379 10375 10371 10368 10368 10368 10368 10366 10365 10364 10362 10362 10364 10368 10373 10376 10380 10385 10392 10400 10408 10414 10418 10422 10426 10432 10442 10451 10458 10462 10467 10471 10475 10477 10480 10484 10489 10494 10498 10502 10506 10510 10513
10560 10557 10554 10551 10548 10545 10541 10538 10534 10531 10528 10524 10520 10516 10511 10507 10502 10498 10493 10488 10483 10478 10473 10468 10464 10459 10455 10449 10444 10438 10433 10427 10421 10416 10410 10405 10400 10395 10389 10383 10378 10374 10369 10366 10363 10359 10356 10356 10356 10356 10356 10355 10353 10353 10355 10359 10363 10367 10370 10374 10380 10389 10396 10402 10407 10411 10417 10426 10436 10443 10447 10452 10457 10461 10464 10467 10470 10473 10479 10485 10489 10493 10498 10501 10505